EW9081 Weather Reports


time (UTC)temp
C
wind
direction
speed
KPH
gust
KPH
rain 1hr
cm
rain 24hr
cm
rain mn
cm
humidity
%
barometer
mb
20260509093409 7 191 0.0 3.2 0.00 0.00 0.00 92 1021.8
20260509092909 7 191 0.0 3.2 0.00 0.00 0.00 91 1021.9
20260509092406 7 191 0.0 3.2 0.00 0.00 0.00 91 1021.9
20260509091907 7 191 0.0 1.6 0.00 0.00 0.00 90 1021.8
20260509091406 8 191 0.0 3.2 0.00 0.00 0.00 90 1021.9
20260509090911 8 191 0.0 3.2 0.00 0.00 0.00 91 1022.0
20260509090907 8 191 0.0 3.2 0.00 0.00 0.00 90 1022.0
20260509085907 8 190 0.0 3.2 0.00 0.00 0.00 91 1022.0
20260509085407 8 190 0.0 3.2 0.00 0.00 0.00 90 1022.0
20260509084912 8 193 0.0 3.2 0.00 0.00 0.00 90 1022.0
20260509084907 8 192 0.0 3.2 0.00 0.00 0.00 89 1022.0
20260509083912 8 192 0.0 3.2 0.00 0.00 0.00 90 1022.0
20260509083906 8 192 0.0 1.6 0.00 0.00 0.00 90 1022.0
20260509082907 8 192 0.0 3.2 0.00 0.00 0.00 91 1022.1
20260509082408 9 192 1.6 3.2 0.00 0.00 0.00 90 1022.1
20260509081904 9 192 1.6 3.2 0.00 0.00 0.00 91 1022.1
20260509081406 9 195 0.0 3.2 0.00 0.00 0.00 90 1022.2
20260509080903 9 275 0.0 1.6 0.00 0.00 0.00 90 1022.1
20260509080402 9 296 0.0 0.0 0.00 0.00 0.00 90 1022.2
20260509075908 9 296 0.0 0.0 0.00 0.00 0.00 89 1022.1
20260509075902 9 296 0.0 0.0 0.00 0.00 0.00 88 1022.2
20260509074903 9 296 0.0 0.0 0.00 0.00 0.00 90 1022.2
20260509074403 9 296 0.0 3.2 0.00 0.00 0.00 89 1022.2
20260509073900 9 296 0.0 3.2 0.00 0.00 0.00 89 1022.2
20260509073400 9 295 0.0 0.0 0.00 0.00 0.00 89 1022.2
20260509072902 10 296 0.0 3.2 0.00 0.00 0.00 88 1022.2
20260509072401 10 295 0.0 3.2 0.00 0.00 0.00 88 1022.2
20260509071900 10 298 0.0 3.2 0.00 0.00 0.00 89 1022.3
20260509071401 10 262 0.0 3.2 0.00 0.00 0.00 88 1022.3
20260509070906 10 304 0.0 4.8 0.00 0.00 0.00 88 1022.3
20260509070901 10 304 0.0 4.8 0.00 0.00 0.00 88 1022.3
20260509065900 10 252 0.0 4.8 0.00 0.00 0.00 88 1022.2
20260509065401 10 248 0.0 4.8 0.00 0.00 0.00 87 1022.2
20260509064901 10 296 0.0 4.8 0.00 0.00 0.00 87 1022.2
20260509064400 10 269 1.6 8.0 0.00 0.00 0.00 87 1022.2
20260509063859 10 252 1.6 8.0 0.00 0.00 0.00 87 1022.2
20260509063359 10 218 1.6 8.0 0.00 0.00 0.00 87 1022.2
20260509062859 10 221 0.0 8.0 0.00 0.00 0.00 87 1022.2
20260509062359 10 222 1.6 6.4 0.00 0.00 0.00 87 1022.2
20260509061904 10 260 1.6 4.8 0.00 0.00 0.00 86 1022.2
20260509061859 10 201 1.6 6.4 0.00 0.00 0.00 87 1022.2
20260509060859 10 261 1.6 8.0 0.00 0.00 0.00 86 1022.2
20260509060359 11 252 0.0 8.0 0.00 0.00 0.00 86 1022.2
20260509055859 11 236 3.2 8.0 0.00 0.00 0.00 86 1022.2
20260509055404 11 219 0.0 4.8 0.00 0.00 0.00 85 1022.2
20260509055400 11 208 3.2 8.0 0.00 0.00 0.00 86 1022.3
20260509054857 11 200 1.6 4.8 0.00 0.00 0.00 86 1022.2
20260509053857 11 248 0.0 4.8 0.00 0.00 0.00 85 1022.2
20260509053358 11 242 1.6 4.8 0.00 0.00 0.00 85 1022.2
20260509052857 11 247 1.6 3.2 0.00 0.00 0.00 84 1022.3
20260509052357 11 251 1.6 11.3 0.00 0.00 0.00 84 1022.2
20260509051902 11 251 1.6 6.4 0.00 0.00 0.00 83 1022.2
20260509051858 11 229 1.6 11.3 0.00 0.00 0.00 84 1022.1
20260509051510 11 221 3.2 8.0 0.00 0.00 0.00 83 1022.2
20260509050357 11 263 3.2 8.0 0.00 0.00 0.00 83 1022.1
20260509045857 11 225 3.2 8.0 0.00 0.00 0.00 83 1021.9
20260509045357 11 258 1.6 6.4 0.00 0.00 0.00 83 1021.9
20260509044903 12 251 1.6 6.4 0.00 0.00 0.00 82 1022.0
20260509044858 11 259 1.6 6.4 0.00 0.00 0.00 82 1022.0
20260509043855 12 254 1.6 8.0 0.00 0.00 0.00 82 1021.9
20260509043355 12 234 1.6 8.0 0.00 0.00 0.00 81 1021.9
20260509042855 12 250 1.6 4.8 0.00 0.00 0.00 81 1021.8
20260509042355 12 238 1.6 4.8 0.00 0.00 0.00 81 1021.8
20260509041854 12 259 1.6 4.8 0.00 0.00 0.00 80 1021.8
20260509041353 12 269 1.6 6.4 0.00 0.00 0.00 79 1021.7
20260509040852 12 257 1.6 6.4 0.00 0.00 0.00 79 1021.7
20260509040354 13 254 1.6 6.4 0.00 0.00 0.00 78 1021.6
20260509035853 13 257 1.6 8.0 0.00 0.00 0.00 77 1021.7
20260509035353 13 223 1.6 8.0 0.00 0.00 0.00 77 1021.6
20260509034854 13 258 1.6 9.7 0.00 0.00 0.00 77 1021.5
20260509034352 13 253 1.6 9.7 0.00 0.00 0.00 76 1021.4
20260509033858 14 263 1.6 9.7 0.00 0.00 0.00 74 1021.4
20260509033854 13 243 1.6 6.4 0.00 0.00 0.00 75 1021.4
20260509033352 13 259 1.6 6.4 0.00 0.00 0.00 75 1021.4
20260509032350 14 217 1.6 9.7 0.00 0.00 0.00 73 1021.3
20260509031851 15 266 1.6 6.4 0.00 0.00 0.00 73 1021.4
20260509031352 15 284 1.6 6.4 0.00 0.00 0.00 71 1021.3
20260509031348 15 299 3.2 6.4 0.00 0.00 0.00 72 1021.4
20260509030348 15 271 1.6 8.0 0.00 0.00 0.00 71 1021.3
20260509025849 15 269 1.6 8.0 0.00 0.00 0.00 70 1021.2
20260509025347 15 239 1.6 8.0 0.00 0.00 0.00 69 1021.3
20260509024846 16 247 1.6 8.0 0.00 0.00 0.00 68 1021.2
20260509024352 16 269 3.2 9.7 0.00 0.00 0.00 67 1021.1
20260509024347 16 276 3.2 9.7 0.00 0.00 0.00 68 1021.2
20260509023848 16 288 3.2 9.7 0.00 0.00 0.00 67 1021.1
20260509022846 16 269 1.6 6.4 0.00 0.00 0.00 67 1021.0
20260509022348 16 259 1.6 6.4 0.00 0.00 0.00 67 1021.0
20260509021844 16 271 1.6 6.4 0.00 0.00 0.00 66 1021.1
20260509021355 18 245 3.2 11.3 0.00 0.00 0.00 64 1020.9
20260509021345 17 240 1.6 12.9 0.00 0.00 0.00 65 1021.0
20260509020846 17 271 3.2 12.9 0.00 0.00 0.00 65 1021.0
20260509020345 17 173 3.2 12.9 0.00 0.00 0.00 63 1021.0
20260509015845 17 256 3.2 12.9 0.00 0.00 0.00 63 1021.0
20260509015346 18 304 3.2 11.3 0.00 0.00 0.00 63 1020.9
20260509014350 17 267 3.2 16.1 0.00 0.00 0.00 63 1020.9
20260509014344 17 242 3.2 16.1 0.00 0.00 0.00 63 1020.9
20260509013342 18 218 3.2 16.1 0.00 0.00 0.00 62 1020.9
20260509012844 18 238 3.2 16.1 0.00 0.00 0.00 62 1021.0
20260509012348 18 247 3.2 9.7 0.00 0.00 0.00 63 1021.0
20260509012343 18 259 3.2 9.7 0.00 0.00 0.00 62 1021.0
20260509011343 18 235 4.8 11.3 0.00 0.00 0.00 61 1021.0
20260509010842 18 238 4.8 11.3 0.00 0.00 0.00 60 1021.1
20260509010342 18 241 4.8 11.3 0.00 0.00 0.00 59 1021.2
20260509005843 18 300 3.2 11.3 0.00 0.00 0.00 59 1021.2
20260509005343 19 248 3.2 11.3 0.00 0.00 0.00 60 1021.2
20260509004844 18 223 4.8 14.5 0.00 0.00 0.00 60 1021.2
20260509004344 18 233 4.8 14.5 0.00 0.00 0.00 60 1021.2
20260509003842 19 265 4.8 14.5 0.00 0.00 0.00 60 1021.2
20260509003344 19 294 4.8 14.5 0.00 0.00 0.00 60 1021.2
20260509002844 19 307 4.8 12.9 0.00 0.00 0.00 60 1021.2
20260509002343 18 296 6.4 17.7 0.00 0.00 0.00 59 1021.2
20260509001842 19 299 6.4 17.7 0.00 0.00 0.00 59 1021.2
20260509001344 19 346 4.8 14.5 0.00 0.00 0.00 59 1021.1
20260509000841 19 242 4.8 11.3 0.00 0.00 0.00 59 1021.1
20260509000340 18 302 6.4 14.5 0.00 0.00 0.00 59 1021.1
20260508235840 19 303 6.4 14.5 0.00 0.00 0.00 59 1021.2
20260508235339 19 334 6.4 14.5 0.00 0.00 0.00 60 1021.2
20260508234838 19 294 4.8 14.5 0.00 0.00 0.00 58 1021.2
20260508234339 18 252 6.4 14.5 0.00 0.00 0.00 60 1021.2
20260508233839 18 301 6.4 16.1 0.00 0.00 0.00 58 1021.3
20260508233343 19 315 6.4 12.9 0.00 0.00 0.00 60 1021.3
20260508233338 19 302 6.4 16.1 0.00 0.00 0.00 59 1021.3
20260508232344 18 317 6.4 17.7 0.00 0.00 0.00 59 1021.3
20260508232340 18 306 6.4 12.9 0.00 0.00 0.00 60 1021.3
20260508231340 18 11 6.4 17.7 0.00 0.00 0.00 59 1021.2
20260508230838 19 213 4.8 16.1 0.00 0.00 0.00 59 1021.3
20260508230339 18 265 6.4 16.1 0.00 0.00 0.00 61 1021.4
20260508225838 18 9 6.4 16.1 0.00 0.00 0.00 60 1021.2
20260508225340 18 297 6.4 12.9 0.00 0.00 0.00 60 1021.4
20260508224836 18 298 8.0 14.5 0.00 0.00 0.00 61 1021.4
20260508224336 18 336 8.0 14.5 0.00 0.00 0.00 58 1021.3
20260508223841 18 322 4.8 12.9 0.00 0.00 0.00 59 1021.3
20260508223836 18 336 6.4 14.5 0.00 0.00 0.00 60 1021.4
20260508222834 18 304 4.8 12.9 0.00 0.00 0.00 61 1021.3
20260508222334 18 277 4.8 12.9 0.00 0.00 0.00 57 1021.3
20260508221834 18 332 4.8 12.9 0.00 0.00 0.00 59 1021.3
20260508221336 18 13 4.8 12.9 0.00 0.00 0.00 61 1021.4
20260508220841 18 295 4.8 11.3 0.00 0.00 0.00 58 1021.5
20260508220834 18 306 6.4 12.9 0.00 0.00 0.00 60 1021.4
20260508220334 18 334 6.4 11.3 0.00 0.00 0.00 60 1021.5
20260508215334 18 249 4.8 11.3 0.00 0.00 0.00 64 1021.6
20260508214839 18 261 4.8 14.5 0.00 0.00 0.00 60 1021.6
20260508214835 18 285 4.8 14.5 0.00 0.00 0.00 60 1021.5
20260508213832 18 292 6.4 16.1 0.00 0.00 0.00 57 1021.7
20260508213333 18 345 8.0 16.1 0.00 0.00 0.00 61 1021.6
20260508212832 17 286 6.4 16.1 0.00 0.00 0.00 61 1021.6
20260508212333 17 5 6.4 16.1 0.00 0.00 0.00 59 1021.7
20260508211832 17 344 4.8 14.5 0.00 0.00 0.00 59 1021.6
20260508211332 17 304 3.2 14.5 0.00 0.00 0.00 59 1021.6
20260508210832 17 215 3.2 9.7 0.00 0.00 0.00 59 1021.6
20260508210330 17 227 3.2 9.7 0.00 0.00 0.00 59 1021.7
20260508205830 17 165 3.2 14.5 0.00 0.00 0.00 61 1021.6
20260508205330 17 237 3.2 14.5 0.00 0.00 0.00 57 1021.6
20260508204834 17 246 3.2 12.9 0.00 0.00 0.00 60 1021.7
20260508204830 17 319 3.2 8.0 0.00 0.00 0.00 60 1021.6
20260508203832 17 355 3.2 12.9 0.00 0.00 0.00 62 1021.7
20260508203334 16 15 3.2 12.9 0.00 0.00 0.00 62 1021.8
20260508203330 16 290 3.2 12.9 0.00 0.00 0.00 62 1021.8
20260508202330 16 32 1.6 6.4 0.00 0.00 0.00 62 1021.8
20260508201834 16 77 3.2 9.7 0.00 0.00 0.00 62 1021.8
20260508201829 16 348 3.2 9.7 0.00 0.00 0.00 64 1021.8
20260508200829 16 250 3.2 9.7 0.00 0.00 0.00 64 1021.7
20260508200328 16 271 4.8 12.9 0.00 0.00 0.00 64 1021.8
20260508195828 16 17 6.4 17.7 0.00 0.00 0.00 64 1021.8
20260508195328 15 17 6.4 17.7 0.00 0.00 0.00 63 1021.9
20260508194828 15 327 3.2 12.9 0.00 0.00 0.00 67 1021.8
20260508194330 15 15 1.6 6.4 0.00 0.00 0.00 64 1021.9
20260508193828 15 319 4.8 14.5 0.00 0.00 0.00 62 1021.9
20260508193327 15 286 6.4 14.5 0.00 0.00 0.00 60 1022.0
20260508192828 15 266 6.4 12.9 0.00 0.00 0.00 63 1022.1
20260508192326 15 325 6.4 12.9 0.00 0.00 0.00 64 1022.1
20260508191828 15 298 4.8 11.3 0.00 0.00 0.00 64 1022.1
20260508191326 15 223 4.8 11.3 0.00 0.00 0.00 65 1022.1
20260508190827 15 243 4.8 17.7 0.00 0.00 0.00 65 1022.0
20260508190326 15 304 4.8 17.7 0.00 0.00 0.00 64 1022.0
20260508185826 15 21 6.4 17.7 0.00 0.00 0.00 64 1022.0
20260508185325 14 22 6.4 17.7 0.00 0.00 0.00 63 1021.9
20260508184824 14 355 4.8 14.5 0.00 0.00 0.00 62 1021.9
20260508184325 14 328 4.8 14.5 0.00 0.00 0.00 64 1021.9
20260508183830 15 249 4.8 14.5 0.00 0.00 0.00 63 1022.0
20260508183825 15 335 4.8 14.5 0.00 0.00 0.00 64 1021.9
20260508182823 15 340 6.4 17.7 0.00 0.00 0.00 64 1022.0
20260508182324 14 268 4.8 17.7 0.00 0.00 0.00 65 1022.0
20260508181823 14 304 4.8 12.9 0.00 0.00 0.00 67 1022.0
20260508181324 14 286 6.4 14.5 0.00 0.00 0.00 66 1021.9
20260508180825 14 343 4.8 14.5 0.00 0.00 0.00 67 1021.9
20260508180322 14 328 4.8 12.9 0.00 0.00 0.00 65 1021.9
20260508175821 13 317 3.2 12.9 0.00 0.00 0.00 68 1021.9
20260508175321 13 5 3.2 11.3 0.00 0.00 0.00 67 1021.9
20260508174820 13 340 3.2 11.3 0.00 0.00 0.00 67 1021.8
20260508174321 13 279 3.2 11.3 0.00 0.00 0.00 68 1021.8
20260508173821 13 273 3.2 9.7 0.00 0.00 0.00 66 1021.7
20260508173321 13 176 4.8 12.9 0.00 0.00 0.00 66 1021.7
20260508172823 12 319 3.2 8.0 0.00 0.00 0.00 71 1021.7
20260508172817 13 228 3.2 12.9 0.00 0.00 0.00 69 1021.7
20260508172433 12 284 4.8 9.7 0.00 0.00 0.00 73 1021.7
20260508171316 12 303 4.8 12.9 0.00 0.00 0.00 71 1021.6
20260508170815 12 273 4.8 12.9 0.00 0.00 0.00 69 1021.6
20260508170316 13 346 3.2 11.3 0.00 0.00 0.00 68 1021.6
20260508165815 13 201 3.2 11.3 0.00 0.00 0.00 68 1021.6
20260508165316 13 165 3.2 11.3 0.00 0.00 0.00 65 1021.5
20260508164815 13 213 4.8 11.3 0.00 0.00 0.00 65 1021.5
20260508164315 12 152 3.2 9.7 0.00 0.00 0.00 68 1021.5
20260508163816 12 244 3.2 9.7 0.00 0.00 0.00 68 1021.5
20260508163315 12 216 1.6 9.7 0.00 0.00 0.00 67 1021.5
20260508162817 12 215 0.0 4.8 0.00 0.00 0.00 70 1021.5
20260508162316 12 147 0.0 3.2 0.00 0.00 0.00 69 1021.5
20260508161817 12 69 0.0 3.2 0.00 0.00 0.00 72 1021.4
20260508161315 12 69 1.6 3.2 0.00 0.00 0.00 69 1021.3
20260508160815 12 69 1.6 8.0 0.00 0.00 0.00 75 1021.3
20260508160319 11 167 1.6 6.4 0.00 0.00 0.00 75 1021.4
20260508160315 12 108 3.2 8.0 0.00 0.00 0.00 72 1021.3
20260508155317 11 171 1.6 6.4 0.00 0.00 0.00 75 1021.3
20260508154815 11 163 1.6 6.4 0.00 0.00 0.00 76 1020.9
20260508154316 11 172 1.6 8.0 0.00 0.00 0.00 78 1021.1
20260508153815 11 176 3.2 11.3 0.00 0.00 0.00 80 1020.9
20260508153314 10 162 4.8 11.3 0.00 0.00 0.00 79 1020.8
20260508152813 10 158 4.8 11.3 0.00 0.00 0.00 79 1021.0
20260508152313 10 155 6.4 11.3 0.00 0.00 0.00 79 1021.1
20260508151815 10 160 4.8 8.0 0.00 0.00 0.00 79 1021.0
20260508151313 10 168 4.8 11.3 0.00 0.00 0.00 79 1020.9
20260508150814 10 171 6.4 11.3 0.00 0.00 0.00 78 1020.8
20260508150314 10 151 6.4 11.3 0.00 0.00 0.00 79 1020.6
20260508145813 10 161 4.8 9.7 0.00 0.00 0.00 80 1020.7
20260508145314 10 159 3.2 9.7 0.00 0.00 0.00 81 1020.8
20260508144814 9 183 1.6 3.2 0.00 0.00 0.00 82 1020.7
20260508144314 8 183 1.6 4.8 0.00 0.00 0.00 82 1020.7
20260508143819 8 180 1.6 6.4 0.00 0.00 0.00 81 1020.4
20260508143814 8 183 1.6 6.4 0.00 0.00 0.00 81 1020.6
20260508142814 8 173 3.2 6.4 0.00 0.00 0.00 82 1020.4
20260508142313 9 172 3.2 6.4 0.00 0.00 0.00 82 1020.4
20260508141813 9 164 3.2 6.4 0.00 0.00 0.00 82 1020.4
20260508141313 9 165 1.6 6.4 0.00 0.00 0.00 82 1020.4
20260508140814 9 177 1.6 3.2 0.00 0.00 0.00 82 1020.4
20260508140313 9 238 0.0 3.2 0.00 0.00 0.00 82 1020.5
20260508135815 9 238 0.0 3.2 0.00 0.00 0.00 82 1020.4
20260508135315 9 238 0.0 3.2 0.00 0.00 0.00 81 1020.4
20260508134813 9 238 1.6 6.4 0.00 0.00 0.00 82 1020.4
20260508134309 9 240 1.6 6.4 0.00 0.00 0.00 82 1020.3
20260508133808 9 252 1.6 8.0 0.00 0.00 0.00 81 1020.4
20260508133308 9 235 3.2 8.0 0.00 0.00 0.00 82 1020.4
20260508132805 9 260 3.2 9.7 0.00 0.00 0.00 82 1020.3
20260508132306 9 261 3.2 11.3 0.00 0.00 0.00 82 1020.2
20260508131811 9 257 1.6 11.3 0.00 0.00 0.00 83 1020.0
20260508131806 9 310 3.2 11.3 0.00 0.00 0.00 83 1020.0
20260508130805 9 252 1.6 6.4 0.00 0.00 0.00 83 1020.0
20260508130305 9 250 3.2 11.3 0.00 0.00 0.00 82 1019.8
20260508125805 9 280 3.2 11.3 0.00 0.00 0.00 82 1019.8
20260508125306 9 252 3.2 8.0 0.00 0.00 0.00 82 1019.8
20260508124805 9 264 3.2 16.1 0.00 0.00 0.00 81 1019.7
20260508124305 9 286 3.2 16.1 0.00 0.00 0.00 81 1019.6
20260508123802 9 269 4.8 14.5 0.00 0.00 0.00 81 1019.6
20260508123304 9 306 4.8 14.5 0.00 0.00 0.00 82 1019.6
20260508122809 8 300 3.2 11.3 0.00 0.00 0.00 82 1019.5
20260508122804 8 261 3.2 11.3 0.00 0.00 0.00 82 1019.4
20260508121803 8 304 3.2 11.3 0.00 0.00 0.00 82 1019.3
20260508121303 8 238 3.2 11.3 0.00 0.00 0.00 83 1019.4
20260508120803 8 250 3.2 9.7 0.00 0.00 0.00 83 1019.3
20260508120309 8 271 1.6 9.7 0.00 0.00 0.00 83 1019.2
20260508120303 8 225 1.6 8.0 0.00 0.00 0.00 83 1019.2
20260508115306 8 254 1.6 9.7 0.00 0.00 0.00 83 1019.1
20260508114800 8 248 3.2 8.0 0.00 0.00 0.00 83 1019.0
20260508114303 8 265 3.2 8.0 0.00 0.00 0.00 83 1019.0
20260508113801 8 252 1.6 8.0 0.00 0.00 0.00 83 1019.0
20260508113301 8 232 1.6 8.0 0.00 0.00 0.00 83 1019.0
20260508112800 8 263 1.6 8.0 0.00 0.00 0.00 83 1019.0
20260508112301 8 252 3.2 11.3 0.00 0.00 0.00 83 1019.0
20260508111806 8 319 1.6 9.7 0.00 0.00 0.00 84 1019.0
20260508111802 8 246 3.2 11.3 0.00 0.00 0.00 83 1018.9
20260508110803 8 273 3.2 14.5 0.00 0.00 0.00 84 1019.0
20260508110300 8 242 3.2 14.5 0.00 0.00 0.00 84 1018.9
20260508105759 8 224 1.6 9.7 0.00 0.00 0.00 84 1018.7
20260508105300 8 275 1.6 12.9 0.00 0.00 0.00 85 1018.7
20260508104759 8 259 1.6 12.9 0.00 0.00 0.00 85 1018.7
20260508104301 8 268 1.6 8.0 0.00 0.00 0.00 85 1018.5
20260508103759 8 247 1.6 6.4 0.00 0.00 0.00 85 1018.5
20260508103305 8 267 3.2 11.3 0.00 0.00 0.00 85 1018.5
20260508103300 8 238 3.2 11.3 0.00 0.00 0.00 85 1018.5
20260508102259 8 269 3.2 8.0 0.00 0.00 0.00 86 1018.4
20260508101802 8 256 1.6 11.3 0.00 0.00 0.00 86 1018.5
20260508101757 8 256 3.2 8.0 0.00 0.00 0.00 86 1018.4
20260508100802 8 250 3.2 9.7 0.00 0.00 0.00 86 1018.5
20260508100757 8 238 3.2 11.3 0.00 0.00 0.00 86 1018.5
20260508095757 8 256 4.8 14.5 0.00 0.00 0.00 86 1018.4
20260508095257 8 222 4.8 14.5 0.00 0.00 0.00 86 1018.4
20260508094758 8 211 4.8 16.1 0.00 0.00 0.00 87 1018.4
20260508094255 8 252 4.8 16.1 0.00 0.00 0.00 87 1018.3
20260508093756 8 173 6.4 14.5 0.00 0.00 0.00 87 1018.2